Weather reports worldwide

Advertisment
Kinlochewe, United Kingdom (99092): temperature & dewpoint: 12.08.2019 02:00:00 - 18.08.2019 02:00:00 (BST)Kinlochewe, United Kingdom (99092): temperature -20cm: 12.08.2019 02:00:00 - 18.08.2019 02:00:00 (BST)Kinlochewe, United Kingdom (99092): precipitation: 12.08.2019 02:00:00 - 18.08.2019 02:00:00 (BST)
Date & Time tt [°C] td [°C] tt -20cm [°C] rr [mm]
18.08.2019 02:00:00 12,9 12,2 - 0,6
18.08.2019 01:00:00 12,7 12,2 - 0,6
18.08.2019 00:00:00 12,5 12,3 - 1,8
17.08.2019 23:00:00 12,2 11,8 - 1,2
17.08.2019 22:00:00 12,9 10,9 - 0,4
17.08.2019 21:00:00 13,5 10,7 - 0,0
17.08.2019 20:00:00 13,2 11,6 - 1,0
17.08.2019 19:00:00 13,0 11,7 - 1,2
17.08.2019 18:00:00 12,3 10,1 - 1,0
17.08.2019 17:00:00 14,8 9,1 - 0,0
17.08.2019 16:00:00 14,8 9,3 - 0,6
17.08.2019 15:00:00 14,0 9,7 - 0,0
17.08.2019 14:00:00 16,7 9,9 - 0,0
17.08.2019 13:00:00 16,1 12,4 - 1,4
17.08.2019 12:00:00 14,0 10,8 - 0,2
17.08.2019 11:00:00 11,2 10,0 - 1,6
17.08.2019 10:00:00 13,2 10,2 14,0 0,2
17.08.2019 09:00:00 13,8 10,7 - 0,0
17.08.2019 08:00:00 11,9 11,5 - 0,0
17.08.2019 07:00:00 11,3 10,8 - 0,0
17.08.2019 06:00:00 11,3 10,4 - 0,8
17.08.2019 05:00:00 12,5 12,5 - 1,4
17.08.2019 04:00:00 13,0 12,4 - 0,0
17.08.2019 03:00:00 13,1 12,3 - 0,0
17.08.2019 02:00:00 14,3 12,7 - 0,0
17.08.2019 01:00:00 14,0 12,5 - 0,0
17.08.2019 00:00:00 14,4 12,9 - 0,0
16.08.2019 23:00:00 14,1 13,2 - 0,0
16.08.2019 22:00:00 14,7 12,7 - 0,0
16.08.2019 21:00:00 15,7 12,3 - 0,0
16.08.2019 20:00:00 15,6 13,1 - 0,2
16.08.2019 19:00:00 16,7 12,6 - 0,0
16.08.2019 18:00:00 17,5 12,8 - 0,0
16.08.2019 17:00:00 16,1 14,0 - 0,0
16.08.2019 16:00:00 17,6 12,1 - 0,0
16.08.2019 15:00:00 16,7 15,7 - 0,8
16.08.2019 14:00:00 17,4 17,3 - 0,6
16.08.2019 13:00:00 15,6 15,6 - 1,8
16.08.2019 12:00:00 15,6 15,6 - 0,4
16.08.2019 11:00:00 16,2 16,0 - 0,0
16.08.2019 10:00:00 14,4 14,4 13,9 0,0
16.08.2019 09:00:00 14,0 14,0 - 0,0
16.08.2019 08:00:00 13,7 13,6 - 0,2
16.08.2019 07:00:00 13,5 13,5 - 0,6
16.08.2019 06:00:00 13,8 13,8 - 1,2
16.08.2019 05:00:00 13,6 13,6 - 1,2
16.08.2019 04:00:00 13,9 13,9 - 0,4
16.08.2019 03:00:00 14,2 14,2 - 0,0
16.08.2019 02:00:00 14,1 14,1 - 0,2
16.08.2019 01:00:00 12,3 12,3 - 1,0
16.08.2019 00:00:00 11,8 11,8 - 2,0
15.08.2019 23:00:00 12,0 12,0 - 2,0
15.08.2019 22:00:00 12,0 11,2 - 0,0
15.08.2019 21:00:00 12,3 10,6 - 0,0
15.08.2019 20:00:00 13,7 7,9 - 0,0
15.08.2019 19:00:00 14,7 7,4 - 0,0
15.08.2019 18:00:00 16,1 6,9 - 0,0
15.08.2019 17:00:00 16,6 7,4 - 0,0
15.08.2019 16:00:00 16,3 7,1 - 0,0
15.08.2019 15:00:00 17,4 7,1 - 0,0
15.08.2019 14:00:00 16,2 7,6 - 0,0
15.08.2019 13:00:00 14,8 8,4 - 0,0
15.08.2019 12:00:00 14,3 9,8 - 0,0
15.08.2019 11:00:00 14,0 11,2 - 0,0
15.08.2019 10:00:00 12,1 11,8 13,7 0,4
15.08.2019 09:00:00 11,2 11,2 - 1,2
15.08.2019 08:00:00 11,5 11,5 - 3,2
15.08.2019 07:00:00 11,9 11,9 - 2,4
15.08.2019 06:00:00 12,7 12,7 - 0,8
15.08.2019 05:00:00 12,4 12,4 - 0,2
15.08.2019 04:00:00 12,4 12,4 - 0,0
15.08.2019 03:00:00 12,6 12,6 - 0,0
15.08.2019 02:00:00 12,7 12,7 - 0,2
15.08.2019 01:00:00 12,6 12,6 - 0,0
15.08.2019 00:00:00 12,6 12,6 - 1,8
14.08.2019 23:00:00 13,0 13,0 - 4,4
14.08.2019 22:00:00 13,2 13,2 - 1,2
14.08.2019 21:00:00 13,3 13,3 - 3,2
14.08.2019 20:00:00 13,2 13,2 - 2,2
14.08.2019 19:00:00 14,2 12,8 - 0,4
14.08.2019 18:00:00 15,8 11,9 - 0,0
14.08.2019 17:00:00 16,3 11,8 - 0,0
14.08.2019 16:00:00 16,3 12,0 - 0,0
14.08.2019 15:00:00 17,2 11,5 - 0,0
14.08.2019 14:00:00 16,0 10,4 - 0,0
14.08.2019 13:00:00 15,5 9,6 - 0,0
14.08.2019 12:00:00 15,1 9,3 - 0,0
14.08.2019 11:00:00 14,6 9,0 - 0,0
14.08.2019 10:00:00 12,9 8,9 13,9 0,0
14.08.2019 09:00:00 11,3 10,6 - 0,0
14.08.2019 08:00:00 10,1 10,1 - 0,0
14.08.2019 07:00:00 8,8 8,8 - 0,0
14.08.2019 06:00:00 8,8 8,8 - 0,0
14.08.2019 05:00:00 8,2 8,2 - 0,0
14.08.2019 04:00:00 7,3 7,3 - 0,0
14.08.2019 03:00:00 7,2 7,2 - 0,0
14.08.2019 02:00:00 6,9 6,9 - 0,0
14.08.2019 01:00:00 7,1 7,1 - 0,0
14.08.2019 00:00:00 6,7 6,7 - 0,0
13.08.2019 23:00:00 6,5 6,4 - 0,0
13.08.2019 22:00:00 8,2 8,2 - 0,0
13.08.2019 21:00:00 10,3 9,5 - 1,4
13.08.2019 20:00:00 11,6 10,7 - 0,2
13.08.2019 19:00:00 11,9 10,5 - 2,4
13.08.2019 18:00:00 13,5 9,4 - 0,6
13.08.2019 17:00:00 14,3 8,4 - 0,0
13.08.2019 16:00:00 13,7 9,8 - 0,2
13.08.2019 15:00:00 13,5 10,0 - 0,0
13.08.2019 14:00:00 11,4 9,4 - 1,0
13.08.2019 13:00:00 13,2 10,6 - 0,8
13.08.2019 12:00:00 13,5 9,9 - 0,4
13.08.2019 11:00:00 12,9 9,3 - 0,0
13.08.2019 10:00:00 12,8 10,9 14,0 0,0
13.08.2019 09:00:00 10,7 10,7 - 0,0
13.08.2019 08:00:00 10,2 10,2 - 0,2
13.08.2019 07:00:00 9,1 9,1 - 0,0
13.08.2019 06:00:00 8,6 8,6 - 0,6
13.08.2019 05:00:00 8,3 8,3 - 0,2
13.08.2019 04:00:00 7,4 7,4 - 0,0
13.08.2019 03:00:00 7,1 7,1 - 0,0
13.08.2019 02:00:00 7,7 7,6 - 0,0
13.08.2019 01:00:00 8,1 8,1 - 0,0
13.08.2019 00:00:00 8,5 8,5 - 0,0
12.08.2019 23:00:00 9,2 9,2 - 0,0
12.08.2019 22:00:00 10,2 10,2 - 0,2
12.08.2019 21:00:00 10,7 10,7 - 1,0
12.08.2019 20:00:00 11,2 10,6 - 0,0
12.08.2019 19:00:00 14,0 12,3 - 0,0
12.08.2019 18:00:00 13,1 11,5 - 0,8
12.08.2019 17:00:00 14,8 8,6 - 0,2
12.08.2019 16:00:00 13,9 9,9 - 0,2
12.08.2019 15:00:00 14,4 9,6 - 0,0
12.08.2019 14:00:00 - - - 0,0
12.08.2019 13:00:00 13,5 7,5 - 0,0
12.08.2019 12:00:00 15,6 7,0 - 0,0
12.08.2019 11:00:00 15,1 7,7 - 0,0
12.08.2019 10:00:00 13,6 8,5 14,4 0,0
12.08.2019 09:00:00 11,3 10,8 - 0,0
12.08.2019 08:00:00 8,0 8,0 - 0,0
12.08.2019 07:00:00 6,2 6,2 - 0,0
12.08.2019 06:00:00 6,0 6,0 - 0,0
12.08.2019 05:00:00 6,3 6,3 - 0,0
12.08.2019 04:00:00 6,7 6,7 - 0,0
12.08.2019 03:00:00 7,5 7,5 - 0,0
12.08.2019 02:00:00 8,4 8,4 - 0,0

tt = temperature
td = dewpoint
tt -20cm = temperature -20cm
rr = precipitation

Next stations